contact:dominique.lefevre@mio.osupytheas.fr, maurice.libes@osupytheas.fr, didier.mallarino@osupytheas.fr
Project:EMSO http://www.emso-fr.org/EMSO-France
Depth: 2436.0 m
Title:EMSO Ligure Ouest : Data MII capteur MICROCAT
DateTime_Computer,Latitude,Longitude,Temperature,Conductivity,Pressure,DateTime_Instrument
DateTime_Computer,Latitude,Longitude,degC,S m-1,dbar,DateTime_Instrument
2020-11-10T00:00:49Z,42.805,6.029,13.2981,4.59979,2470.217,2020-11-10T02:01:45Z
2020-11-10T00:03:52Z,42.805,6.029,13.2978,4.59979,2470.143,2020-11-10T02:04:48Z
2020-11-10T00:06:55Z,42.805,6.029,13.2980,4.59979,2470.217,2020-11-10T02:07:51Z
2020-11-10T00:09:58Z,42.805,6.029,13.2978,4.59979,2470.194,2020-11-10T02:10:54Z
2020-11-10T00:13:01Z,42.805,6.029,13.2976,4.59979,2470.194,2020-11-10T02:13:57Z
2020-11-10T00:16:04Z,42.805,6.029,13.2979,4.59979,2470.194,2020-11-10T02:17:00Z
2020-11-10T00:19:07Z,42.805,6.029,13.2979,4.59979,2470.18,2020-11-10T02:20:03Z
2020-11-10T00:22:10Z,42.805,6.029,13.2977,4.59980,2470.203,2020-11-10T02:23:06Z
2020-11-10T00:25:13Z,42.805,6.029,13.2978,4.59979,2470.203,2020-11-10T02:26:10Z
2020-11-10T00:28:17Z,42.805,6.029,13.2979,4.59979,2470.203,2020-11-10T02:29:13Z
2020-11-10T00:31:20Z,42.805,6.029,13.2978,4.59979,2470.18,2020-11-10T02:32:16Z
2020-11-10T00:34:23Z,42.805,6.029,13.2976,4.59979,2470.156,2020-11-10T02:35:19Z
2020-11-10T00:37:26Z,42.805,6.029,13.2974,4.59978,2470.18,2020-11-10T02:38:22Z
2020-11-10T00:40:29Z,42.805,6.029,13.2974,4.59979,2470.203,2020-11-10T02:41:25Z
2020-11-10T00:43:32Z,42.805,6.029,13.2980,4.59979,2470.18,2020-11-10T02:44:28Z
2020-11-10T00:46:35Z,42.805,6.029,13.2975,4.59979,2470.203,2020-11-10T02:47:31Z
2020-11-10T00:49:38Z,42.805,6.029,13.2978,4.59979,2470.18,2020-11-10T02:50:35Z
2020-11-10T00:52:42Z,42.805,6.029,13.2978,4.59979,2470.217,2020-11-10T02:53:38Z
2020-11-10T00:55:45Z,42.805,6.029,13.2978,4.59979,2470.217,2020-11-10T02:56:41Z
2020-11-10T00:58:48Z,42.805,6.029,13.2979,4.59979,2470.18,2020-11-10T02:59:44Z
2020-11-10T01:01:51Z,42.805,6.029,13.2979,4.59979,2470.194,2020-11-10T03:02:47Z
2020-11-10T01:04:54Z,42.805,6.029,13.2976,4.59979,2470.203,2020-11-10T03:05:50Z
2020-11-10T01:07:57Z,42.805,6.029,13.2982,4.59979,2470.189,2020-11-10T03:08:53Z
2020-11-10T01:11:00Z,42.805,6.029,13.2979,4.59979,2470.18,2020-11-10T03:11:56Z
2020-11-10T01:14:03Z,42.805,6.029,13.2977,4.59980,2470.194,2020-11-10T03:15:00Z
2020-11-10T01:17:07Z,42.805,6.029,13.2982,4.59981,2470.18,2020-11-10T03:18:03Z
2020-11-10T01:20:10Z,42.805,6.029,13.2976,4.59980,2470.24,2020-11-10T03:21:06Z
2020-11-10T01:23:13Z,42.805,6.029,13.2979,4.59982,2470.18,2020-11-10T03:24:09Z
2020-11-10T01:26:16Z,42.805,6.029,13.2983,4.59979,2470.203,2020-11-10T03:27:12Z
2020-11-10T01:29:19Z,42.805,6.029,13.2976,4.59979,2470.217,2020-11-10T03:30:15Z
2020-11-10T01:32:22Z,42.805,6.029,13.2978,4.59979,2470.217,2020-11-10T03:33:18Z
2020-11-10T01:35:25Z,42.805,6.029,13.2976,4.59979,2470.203,2020-11-10T03:36:21Z
2020-11-10T01:38:28Z,42.805,6.029,13.2974,4.59979,2470.203,2020-11-10T03:39:25Z
2020-11-10T01:41:32Z,42.805,6.029,13.2976,4.59979,2470.203,2020-11-10T03:42:28Z
2020-11-10T01:44:35Z,42.805,6.029,13.2979,4.59979,2470.227,2020-11-10T03:45:31Z
2020-11-10T01:47:38Z,42.805,6.029,13.2980,4.59979,2470.18,2020-11-10T03:48:34Z
2020-11-10T01:50:41Z,42.805,6.029,13.2976,4.59979,2470.227,2020-11-10T03:51:37Z
2020-11-10T01:53:44Z,42.805,6.029,13.2982,4.59979,2470.227,2020-11-10T03:54:40Z
2020-11-10T01:56:47Z,42.805,6.029,13.2975,4.59979,2470.217,2020-11-10T03:57:43Z
2020-11-10T01:59:50Z,42.805,6.029,13.2979,4.59979,2470.203,2020-11-10T04:00:46Z
2020-11-10T02:02:53Z,42.805,6.029,13.2979,4.59979,2470.203,2020-11-10T04:03:49Z
2020-11-10T02:05:57Z,42.805,6.029,13.2976,4.59980,2470.227,2020-11-10T04:06:53Z
2020-11-10T02:09:00Z,42.805,6.029,13.2982,4.59980,2470.227,2020-11-10T04:09:56Z
2020-11-10T02:12:03Z,42.805,6.029,13.2976,4.59978,2470.203,2020-11-10T04:12:59Z
2020-11-10T02:15:06Z,42.805,6.029,13.2977,4.59979,2470.217,2020-11-10T04:16:02Z
2020-11-10T02:18:09Z,42.805,6.029,13.2979,4.59979,2470.25,2020-11-10T04:19:05Z
2020-11-10T02:21:12Z,42.805,6.029,13.2980,4.59978,2470.18,2020-11-10T04:22:08Z
2020-11-10T02:24:15Z,42.805,6.029,13.2977,4.59980,2470.217,2020-11-10T04:25:11Z
2020-11-10T02:27:18Z,42.805,6.029,13.2977,4.59979,2470.203,2020-11-10T04:28:14Z
2020-11-10T02:30:21Z,42.805,6.029,13.2979,4.59978,2470.18,2020-11-10T04:31:18Z
2020-11-10T02:33:25Z,42.805,6.029,13.2981,4.59979,2470.24,2020-11-10T04:34:21Z
2020-11-10T02:36:28Z,42.805,6.029,13.2972,4.59980,2470.24,2020-11-10T04:37:24Z
2020-11-10T02:39:31Z,42.805,6.029,13.2980,4.59979,2470.227,2020-11-10T04:40:27Z
2020-11-10T02:42:34Z,42.805,6.029,13.2979,4.59979,2470.203,2020-11-10T04:43:30Z
2020-11-10T02:45:37Z,42.805,6.029,13.2978,4.59979,2470.203,2020-11-10T04:46:33Z
2020-11-10T02:48:40Z,42.805,6.029,13.2983,4.59979,2470.217,2020-11-10T04:49:36Z
2020-11-10T02:51:43Z,42.805,6.029,13.2979,4.59979,2470.24,2020-11-10T04:52:39Z
2020-11-10T02:54:46Z,42.805,6.029,13.2980,4.59979,2470.217,2020-11-10T04:55:43Z
2020-11-10T02:57:50Z,42.805,6.029,13.2979,4.59979,2470.24,2020-11-10T04:58:46Z
2020-11-10T03:00:53Z,42.805,6.029,13.2978,4.59979,2470.18,2020-11-10T05:01:49Z
2020-11-10T03:03:56Z,42.805,6.029,13.2975,4.59979,2470.24,2020-11-10T05:04:52Z
2020-11-10T03:06:59Z,42.805,6.029,13.2979,4.59980,2470.203,2020-11-10T05:07:55Z
2020-11-10T03:10:02Z,42.805,6.029,13.2978,4.59978,2470.217,2020-11-10T05:10:58Z
2020-11-10T03:13:05Z,42.805,6.029,13.2979,4.59979,2470.203,2020-11-10T05:14:01Z
2020-11-10T03:16:08Z,42.805,6.029,13.2976,4.59979,2470.227,2020-11-10T05:17:04Z
2020-11-10T03:19:11Z,42.805,6.029,13.2982,4.59981,2470.217,2020-11-10T05:20:08Z
2020-11-10T03:22:15Z,42.805,6.029,13.2977,4.59981,2470.203,2020-11-10T05:23:11Z
2020-11-10T03:25:18Z,42.805,6.029,13.2977,4.59980,2470.203,2020-11-10T05:26:14Z
2020-11-10T03:28:21Z,42.805,6.029,13.2977,4.59978,2470.217,2020-11-10T05:29:17Z
2020-11-10T03:31:24Z,42.805,6.029,13.2979,4.59980,2470.203,2020-11-10T05:32:20Z
2020-11-10T03:34:27Z,42.805,6.029,13.2977,4.59979,2470.24,2020-11-10T05:35:23Z
2020-11-10T03:37:30Z,42.805,6.029,13.2978,4.59979,2470.203,2020-11-10T05:38:26Z
2020-11-10T03:40:33Z,42.805,6.029,13.2977,4.59979,2470.217,2020-11-10T05:41:29Z
2020-11-10T03:43:36Z,42.805,6.029,13.2984,4.59978,2470.24,2020-11-10T05:44:33Z
2020-11-10T04:08:08Z,42.805,6.029,13.2979,4.59979,2470.203,2020-11-10T06:09:04Z
2020-11-10T04:11:11Z,42.805,6.029,13.2980,4.59979,2470.227,2020-11-10T06:12:07Z
2020-11-10T04:14:14Z,42.805,6.029,13.2978,4.59979,2470.264,2020-11-10T06:15:10Z
2020-11-10T04:17:17Z,42.805,6.029,13.2976,4.59979,2470.227,2020-11-10T06:18:13Z
2020-11-10T04:20:20Z,42.805,6.029,13.2982,4.59980,2470.203,2020-11-10T06:21:17Z
2020-11-10T04:23:24Z,42.805,6.029,13.2977,4.59979,2470.194,2020-11-10T06:24:20Z
2020-11-10T04:26:27Z,42.805,6.029,13.2981,4.59979,2470.217,2020-11-10T06:27:23Z
2020-11-10T04:29:30Z,42.805,6.029,13.2977,4.59979,2470.217,2020-11-10T06:30:26Z
2020-11-10T04:32:33Z,42.805,6.029,13.2979,4.59981,2470.24,2020-11-10T06:33:29Z
2020-11-10T04:35:36Z,42.805,6.029,13.2978,4.59980,2470.217,2020-11-10T06:36:32Z
2020-11-10T04:38:39Z,42.805,6.029,13.2981,4.59979,2470.217,2020-11-10T06:39:35Z
2020-11-10T04:41:42Z,42.805,6.029,13.2976,4.59978,2470.194,2020-11-10T06:42:38Z
2020-11-10T04:44:45Z,42.805,6.029,13.2976,4.59979,2470.217,2020-11-10T06:45:42Z
2020-11-10T04:47:49Z,42.805,6.029,13.2979,4.59979,2470.203,2020-11-10T06:48:45Z
2020-11-10T04:50:52Z,42.805,6.029,13.2981,4.59979,2470.203,2020-11-10T06:51:48Z
2020-11-10T04:53:55Z,42.805,6.029,13.2976,4.59980,2470.227,2020-11-10T06:54:51Z
2020-11-10T04:56:58Z,42.805,6.029,13.2976,4.59980,2470.217,2020-11-10T06:57:54Z
2020-11-10T05:00:01Z,42.805,6.029,13.2982,4.59979,2470.18,2020-11-10T07:00:57Z
2020-11-10T05:03:04Z,42.805,6.029,13.2979,4.59980,2470.194,2020-11-10T07:04:00Z
2020-11-10T05:06:07Z,42.805,6.029,13.2979,4.59979,2470.236,2020-11-10T07:07:03Z
2020-11-10T05:09:10Z,42.805,6.029,13.2979,4.59979,2470.194,2020-11-10T07:10:06Z
2020-11-10T05:12:14Z,42.805,6.029,13.2975,4.59979,2470.217,2020-11-10T07:13:10Z
2020-11-10T05:15:17Z,42.805,6.029,13.2979,4.59980,2470.203,2020-11-10T07:16:13Z
2020-11-10T05:18:20Z,42.805,6.029,13.2981,4.59981,2470.133,2020-11-10T07:19:16Z
2020-11-10T05:21:23Z,42.805,6.029,13.2976,4.59978,2470.217,2020-11-10T07:22:19Z
2020-11-10T05:24:26Z,42.805,6.029,13.2974,4.59979,2470.227,2020-11-10T07:25:22Z
2020-11-10T05:27:29Z,42.805,6.029,13.2976,4.59980,2470.194,2020-11-10T07:28:25Z
2020-11-10T05:30:32Z,42.805,6.029,13.2980,4.59979,2470.217,2020-11-10T07:31:28Z
2020-11-10T05:33:35Z,42.805,6.029,13.2979,4.59979,2470.217,2020-11-10T07:34:31Z
2020-11-10T05:36:38Z,42.805,6.029,13.2977,4.59979,2470.171,2020-11-10T07:37:35Z
2020-11-10T05:39:42Z,42.805,6.029,13.2978,4.59980,2470.203,2020-11-10T07:40:38Z
2020-11-10T05:42:45Z,42.805,6.029,13.2979,4.59979,2470.18,2020-11-10T07:43:41Z
2020-11-10T05:45:48Z,42.805,6.029,13.2975,4.59979,2470.18,2020-11-10T07:46:44Z
2020-11-10T05:48:51Z,42.805,6.029,13.2979,4.59979,2470.156,2020-11-10T07:49:47Z
2020-11-10T05:51:54Z,42.805,6.029,13.2974,4.59979,2470.156,2020-11-10T07:52:50Z
2020-11-10T05:54:57Z,42.805,6.029,13.2979,4.59979,2470.217,2020-11-10T07:55:53Z
2020-11-10T05:58:00Z,42.805,6.029,13.2979,4.59980,2470.203,2020-11-10T07:58:56Z
2020-11-10T06:01:03Z,42.805,6.029,13.2977,4.59979,2470.18,2020-11-10T08:02:00Z
2020-11-10T06:04:07Z,42.805,6.029,13.2978,4.59979,2470.156,2020-11-10T08:05:03Z
2020-11-10T06:07:10Z,42.805,6.029,13.2976,4.59979,2470.156,2020-11-10T08:08:06Z
2020-11-10T06:10:13Z,42.805,6.029,13.2976,4.59979,2470.156,2020-11-10T08:11:09Z
2020-11-10T06:13:16Z,42.805,6.029,13.2979,4.59979,2470.203,2020-11-10T08:14:12Z
2020-11-10T06:16:19Z,42.805,6.029,13.2982,4.59980,2470.171,2020-11-10T08:17:15Z
2020-11-10T06:19:22Z,42.805,6.029,13.2979,4.59979,2470.171,2020-11-10T08:20:18Z
2020-11-10T06:22:25Z,42.805,6.029,13.2974,4.59980,2470.18,2020-11-10T08:23:21Z
2020-11-10T06:25:28Z,42.805,6.029,13.2975,4.59979,2470.156,2020-11-10T08:26:25Z
2020-11-10T06:28:32Z,42.805,6.029,13.2977,4.59980,2470.143,2020-11-10T08:29:28Z
2020-11-10T06:31:35Z,42.805,6.029,13.2982,4.59979,2470.171,2020-11-10T08:32:31Z
2020-11-10T06:34:38Z,42.805,6.029,13.2976,4.59979,2470.156,2020-11-10T08:35:34Z
2020-11-10T06:37:41Z,42.805,6.029,13.2979,4.59979,2470.18,2020-11-10T08:38:37Z
2020-11-10T06:40:44Z,42.805,6.029,13.2979,4.59980,2470.171,2020-11-10T08:41:40Z
2020-11-10T06:43:47Z,42.805,6.029,13.2979,4.59980,2470.171,2020-11-10T08:44:43Z
2020-11-10T06:46:50Z,42.805,6.029,13.2979,4.59980,2470.18,2020-11-10T08:47:46Z
2020-11-10T06:49:53Z,42.805,6.029,13.2975,4.59979,2470.171,2020-11-10T08:50:50Z
2020-11-10T06:52:57Z,42.805,6.029,13.2982,4.59980,2470.171,2020-11-10T08:53:53Z
2020-11-10T06:56:00Z,42.805,6.029,13.2980,4.59980,2470.18,2020-11-10T08:56:56Z
2020-11-10T06:59:03Z,42.805,6.029,13.2976,4.59980,2470.156,2020-11-10T08:59:59Z
2020-11-10T07:02:06Z,42.805,6.029,13.2979,4.59979,2470.133,2020-11-10T09:03:02Z
2020-11-10T07:05:09Z,42.805,6.029,13.2976,4.59980,2470.133,2020-11-10T09:06:05Z
2020-11-10T07:08:12Z,42.805,6.029,13.2982,4.59979,2470.147,2020-11-10T09:09:08Z
2020-11-10T07:11:15Z,42.805,6.029,13.2982,4.59981,2470.143,2020-11-10T09:12:11Z
2020-11-10T07:14:18Z,42.805,6.029,13.2976,4.59980,2470.133,2020-11-10T09:15:15Z
2020-11-10T07:17:22Z,42.805,6.029,13.2974,4.59980,2470.194,2020-11-10T09:18:18Z
2020-11-10T07:20:25Z,42.805,6.029,13.2979,4.59980,2470.18,2020-11-10T09:21:21Z
2020-11-10T07:23:28Z,42.805,6.029,13.2980,4.59981,2470.171,2020-11-10T09:24:24Z
2020-11-10T07:26:31Z,42.805,6.029,13.2982,4.59981,2470.133,2020-11-10T09:27:27Z
2020-11-10T07:29:34Z,42.805,6.029,13.2980,4.59980,2470.133,2020-11-10T09:30:30Z
2020-11-10T07:32:37Z,42.805,6.029,13.2978,4.59981,2470.147,2020-11-10T09:33:33Z
2020-11-10T07:35:40Z,42.805,6.029,13.2979,4.59981,2470.133,2020-11-10T09:36:36Z
2020-11-10T07:38:43Z,42.805,6.029,13.2982,4.59981,2470.133,2020-11-10T09:39:39Z
2020-11-10T07:41:46Z,42.805,6.029,13.2976,4.59980,2470.133,2020-11-10T09:42:43Z
2020-11-10T07:44:50Z,42.805,6.029,13.2976,4.59980,2470.11,2020-11-10T09:45:46Z
2020-11-10T07:47:53Z,42.805,6.029,13.2980,4.59980,2470.133,2020-11-10T09:48:49Z
2020-11-10T07:50:56Z,42.805,6.029,13.2977,4.59980,2470.171,2020-11-10T09:51:52Z
2020-11-10T07:53:59Z,42.805,6.029,13.2980,4.59979,2470.156,2020-11-10T09:54:55Z
2020-11-10T07:57:02Z,42.805,6.029,13.2979,4.59980,2470.18,2020-11-10T09:57:58Z
2020-11-10T08:00:05Z,42.805,6.029,13.2979,4.59980,2470.133,2020-11-10T10:01:01Z
2020-11-10T08:03:08Z,42.805,6.029,13.2983,4.59981,2470.156,2020-11-10T10:04:05Z
2020-11-10T08:06:12Z,42.805,6.029,13.2982,4.59981,2470.133,2020-11-10T10:07:08Z
2020-11-10T08:09:15Z,42.805,6.029,13.2976,4.59980,2470.171,2020-11-10T10:10:11Z
2020-11-10T08:12:18Z,42.805,6.029,13.2979,4.59981,2470.133,2020-11-10T10:13:14Z
2020-11-10T08:15:21Z,42.805,6.029,13.2981,4.59981,2470.147,2020-11-10T10:16:17Z
2020-11-10T08:18:24Z,42.805,6.029,13.2982,4.59980,2470.147,2020-11-10T10:19:20Z
2020-11-10T08:21:27Z,42.805,6.029,13.2979,4.59980,2470.147,2020-11-10T10:22:23Z
2020-11-10T08:24:30Z,42.805,6.029,13.2973,4.59980,2470.156,2020-11-10T10:25:26Z
2020-11-10T08:27:33Z,42.805,6.029,13.2976,4.59981,2470.156,2020-11-10T10:28:29Z
2020-11-10T08:30:37Z,42.805,6.029,13.2977,4.59982,2470.147,2020-11-10T10:31:33Z
2020-11-10T08:33:40Z,42.805,6.029,13.2978,4.59981,2470.133,2020-11-10T10:34:36Z
2020-11-10T08:36:43Z,42.805,6.029,13.2978,4.59981,2470.171,2020-11-10T10:37:39Z
2020-11-10T08:39:46Z,42.805,6.029,13.2978,4.59981,2470.11,2020-11-10T10:40:42Z
2020-11-10T08:42:49Z,42.805,6.029,13.2982,4.59980,2470.133,2020-11-10T10:43:45Z
2020-11-10T08:45:52Z,42.805,6.029,13.2979,4.59981,2470.156,2020-11-10T10:46:48Z
2020-11-10T08:48:55Z,42.805,6.029,13.2977,4.59981,2470.133,2020-11-10T10:49:51Z
2020-11-10T08:51:58Z,42.805,6.029,13.2980,4.59980,2470.171,2020-11-10T10:52:55Z
2020-11-10T08:55:02Z,42.805,6.029,13.2982,4.59981,2470.133,2020-11-10T10:55:58Z
2020-11-10T08:58:05Z,42.805,6.029,13.2979,4.59981,2470.156,2020-11-10T10:59:01Z
2020-11-10T09:01:08Z,42.805,6.029,13.2977,4.59981,2470.156,2020-11-10T11:02:04Z
2020-11-10T09:04:11Z,42.805,6.029,13.2977,4.59981,2470.133,2020-11-10T11:05:07Z
2020-11-10T09:07:14Z,42.805,6.029,13.2979,4.59981,2470.156,2020-11-10T11:08:10Z
2020-11-10T09:10:17Z,42.805,6.029,13.2980,4.59980,2470.156,2020-11-10T11:11:13Z
2020-11-10T09:13:20Z,42.805,6.029,13.2982,4.59980,2470.171,2020-11-10T11:14:16Z
2020-11-10T09:16:23Z,42.805,6.029,13.2982,4.59981,2470.171,2020-11-10T11:17:20Z
2020-11-10T09:19:27Z,42.805,6.029,13.2975,4.59980,2470.133,2020-11-10T11:20:23Z
2020-11-10T09:22:30Z,42.805,6.029,13.2978,4.59981,2470.171,2020-11-10T11:23:26Z
2020-11-10T09:25:33Z,42.805,6.029,13.2979,4.59981,2470.171,2020-11-10T11:26:29Z
2020-11-10T09:28:36Z,42.805,6.029,13.2976,4.59984,2470.194,2020-11-10T11:29:32Z
2020-11-10T09:31:39Z,42.805,6.029,13.2982,4.59981,2470.133,2020-11-10T11:32:35Z
2020-11-10T09:34:42Z,42.805,6.029,13.2982,4.59982,2470.18,2020-11-10T11:35:38Z
2020-11-10T09:37:45Z,42.805,6.029,13.2981,4.59980,2470.133,2020-11-10T11:38:41Z
2020-11-10T09:40:48Z,42.805,6.029,13.2977,4.59985,2470.18,2020-11-10T11:41:45Z
2020-11-10T09:43:52Z,42.805,6.029,13.2982,4.59981,2470.147,2020-11-10T11:44:48Z
2020-11-10T09:46:55Z,42.805,6.029,13.2976,4.59981,2470.18,2020-11-10T11:47:51Z
2020-11-10T09:49:58Z,42.805,6.029,13.2983,4.59981,2470.156,2020-11-10T11:50:54Z
2020-11-10T09:53:01Z,42.805,6.029,13.2980,4.59981,2470.156,2020-11-10T11:53:57Z
2020-11-10T09:56:04Z,42.805,6.029,13.2982,4.59981,2470.18,2020-11-10T11:57:00Z
2020-11-10T09:59:07Z,42.805,6.029,13.2978,4.59981,2470.18,2020-11-10T12:00:03Z
2020-11-10T10:02:10Z,42.805,6.029,13.2980,4.59981,2470.171,2020-11-10T12:03:06Z
2020-11-10T10:05:13Z,42.805,6.029,13.2979,4.59981,2470.194,2020-11-10T12:06:10Z
2020-11-10T10:08:17Z,42.805,6.029,13.2979,4.59981,2470.171,2020-11-10T12:09:13Z
2020-11-10T10:11:20Z,42.805,6.029,13.2981,4.59981,2470.194,2020-11-10T12:12:16Z
2020-11-10T10:14:23Z,42.805,6.029,13.2982,4.59981,2470.18,2020-11-10T12:15:19Z
2020-11-10T10:17:26Z,42.805,6.029,13.2976,4.59981,2470.156,2020-11-10T12:18:22Z
2020-11-10T10:20:29Z,42.805,6.029,13.2979,4.59981,2470.18,2020-11-10T12:21:25Z
2020-11-10T10:23:32Z,42.805,6.029,13.2978,4.59981,2470.156,2020-11-10T12:24:28Z
2020-11-10T10:26:35Z,42.805,6.029,13.2979,4.59981,2470.156,2020-11-10T12:27:31Z
2020-11-10T10:29:38Z,42.805,6.029,13.2983,4.59981,2470.194,2020-11-10T12:30:35Z
2020-11-10T10:32:42Z,42.805,6.029,13.2979,4.59981,2470.194,2020-11-10T12:33:38Z
2020-11-10T10:35:45Z,42.805,6.029,13.2979,4.59981,2470.18,2020-11-10T12:36:41Z
2020-11-10T10:38:48Z,42.805,6.029,13.2981,4.59981,2470.156,2020-11-10T12:39:44Z
2020-11-10T10:41:51Z,42.805,6.029,13.2980,4.59981,2470.18,2020-11-10T12:42:47Z
2020-11-10T10:44:54Z,42.805,6.029,13.2982,4.59981,2470.18,2020-11-10T12:45:50Z
2020-11-10T10:47:57Z,42.805,6.029,13.2982,4.59982,2470.171,2020-11-10T12:48:53Z
2020-11-10T10:51:00Z,42.805,6.029,13.2982,4.59981,2470.18,2020-11-10T12:51:57Z
2020-11-10T10:54:04Z,42.805,6.029,13.2980,4.59981,2470.217,2020-11-10T12:55:00Z
2020-11-10T10:57:07Z,42.805,6.029,13.2977,4.59981,2470.18,2020-11-10T12:58:03Z
2020-11-10T11:00:10Z,42.805,6.029,13.2981,4.59981,2470.18,2020-11-10T13:01:06Z
2020-11-10T11:03:13Z,42.805,6.029,13.2982,4.59981,2470.203,2020-11-10T13:04:09Z
2020-11-10T11:06:16Z,42.805,6.029,13.2983,4.59981,2470.194,2020-11-10T13:07:12Z
2020-11-10T11:09:19Z,42.805,6.029,13.2977,4.59981,2470.217,2020-11-10T13:10:15Z
2020-11-10T11:12:22Z,42.805,6.029,13.2979,4.59981,2470.194,2020-11-10T13:13:18Z
2020-11-10T11:15:25Z,42.805,6.029,13.2981,4.59981,2470.203,2020-11-10T13:16:22Z
2020-11-10T11:18:29Z,42.805,6.029,13.2983,4.59982,2470.203,2020-11-10T13:19:25Z
2020-11-10T11:21:32Z,42.805,6.029,13.2982,4.59981,2470.217,2020-11-10T13:22:28Z
2020-11-10T11:24:35Z,42.805,6.029,13.2979,4.59982,2470.217,2020-11-10T13:25:31Z
2020-11-10T11:27:38Z,42.805,6.029,13.2979,4.59981,2470.217,2020-11-10T13:28:34Z
2020-11-10T11:30:41Z,42.805,6.029,13.2979,4.59981,2470.18,2020-11-10T13:31:37Z
2020-11-10T11:33:44Z,42.805,6.029,13.2979,4.59981,2470.217,2020-11-10T13:34:40Z
2020-11-10T11:36:47Z,42.805,6.029,13.2979,4.59981,2470.203,2020-11-10T13:37:43Z
2020-11-10T11:39:50Z,42.805,6.029,13.2979,4.59982,2470.227,2020-11-10T13:40:47Z
2020-11-10T11:42:54Z,42.805,6.029,13.2987,4.59982,2470.203,2020-11-10T13:43:50Z
2020-11-10T11:45:57Z,42.805,6.029,13.2982,4.59981,2470.203,2020-11-10T13:46:53Z
2020-11-10T11:49:00Z,42.805,6.029,13.2980,4.59981,2470.203,2020-11-10T13:49:56Z
2020-11-10T11:52:03Z,42.805,6.029,13.2978,4.59981,2470.194,2020-11-10T13:52:59Z
2020-11-10T11:55:06Z,42.805,6.029,13.2979,4.59982,2470.227,2020-11-10T13:56:02Z
2020-11-10T11:58:09Z,42.805,6.029,13.2979,4.59984,2470.217,2020-11-10T13:59:05Z
2020-11-10T12:01:12Z,42.805,6.029,13.2979,4.59982,2470.217,2020-11-10T14:02:08Z
2020-11-10T12:04:15Z,42.805,6.029,13.2976,4.59982,2470.203,2020-11-10T14:05:12Z
2020-11-10T12:07:19Z,42.805,6.029,13.2980,4.59981,2470.203,2020-11-10T14:08:15Z
2020-11-10T12:10:22Z,42.805,6.029,13.2978,4.59982,2470.203,2020-11-10T14:11:18Z
2020-11-10T12:13:25Z,42.805,6.029,13.2981,4.59982,2470.18,2020-11-10T14:14:21Z
2020-11-10T12:16:28Z,42.805,6.029,13.2978,4.59983,2470.203,2020-11-10T14:17:24Z
2020-11-10T12:19:31Z,42.805,6.029,13.2979,4.59983,2470.217,2020-11-10T14:20:27Z
2020-11-10T12:22:34Z,42.805,6.029,13.2976,4.59981,2470.227,2020-11-10T14:23:30Z
2020-11-10T12:25:37Z,42.805,6.029,13.2982,4.59982,2470.24,2020-11-10T14:26:33Z
2020-11-10T12:28:40Z,42.805,6.029,13.2979,4.59981,2470.227,2020-11-10T14:29:37Z
2020-11-10T12:31:44Z,42.805,6.029,13.2982,4.59982,2470.217,2020-11-10T14:32:40Z
2020-11-10T12:34:47Z,42.805,6.029,13.2978,4.59982,2470.25,2020-11-10T14:35:43Z
2020-11-10T12:37:50Z,42.805,6.029,13.2982,4.59982,2470.24,2020-11-10T14:38:46Z
2020-11-10T12:40:53Z,42.805,6.029,13.2980,4.59982,2470.264,2020-11-10T14:41:49Z
2020-11-10T12:43:56Z,42.805,6.029,13.2982,4.59982,2470.227,2020-11-10T14:44:52Z
2020-11-10T12:46:59Z,42.805,6.029,13.2979,4.59983,2470.24,2020-11-10T14:47:55Z
2020-11-10T12:50:02Z,42.805,6.029,13.2982,4.59982,2470.273,2020-11-10T14:50:58Z
2020-11-10T12:53:05Z,42.805,6.029,13.2982,4.59983,2470.25,2020-11-10T14:54:02Z
2020-11-10T12:56:09Z,42.805,6.029,13.2981,4.59983,2470.227,2020-11-10T14:57:05Z
2020-11-10T12:59:12Z,42.805,6.029,13.2975,4.59982,2470.227,2020-11-10T15:00:08Z
2020-11-10T13:02:15Z,42.805,6.029,13.2980,4.59982,2470.25,2020-11-10T15:03:11Z
2020-11-10T13:05:18Z,42.805,6.029,13.2977,4.59983,2470.264,2020-11-10T15:06:14Z
2020-11-10T13:08:21Z,42.805,6.029,13.2982,4.59982,2470.25,2020-11-10T15:09:17Z
2020-11-10T13:11:24Z,42.805,6.029,13.2982,4.59983,2470.273,2020-11-10T15:12:20Z
2020-11-10T13:14:27Z,42.805,6.029,13.2983,4.59982,2470.287,2020-11-10T15:15:23Z
2020-11-10T13:17:30Z,42.805,6.029,13.2982,4.59982,2470.264,2020-11-10T15:18:27Z
2020-11-10T13:20:34Z,42.805,6.029,13.2982,4.59983,2470.25,2020-11-10T15:21:30Z
2020-11-10T13:23:37Z,42.805,6.029,13.2983,4.59982,2470.273,2020-11-10T15:24:33Z
2020-11-10T13:26:40Z,42.805,6.029,13.2977,4.59982,2470.264,2020-11-10T15:27:36Z
2020-11-10T13:29:43Z,42.805,6.029,13.2982,4.59982,2470.273,2020-11-10T15:30:39Z
2020-11-10T13:32:46Z,42.805,6.029,13.2979,4.59985,2470.264,2020-11-10T15:33:42Z
2020-11-10T13:35:49Z,42.805,6.029,13.2979,4.59982,2470.287,2020-11-10T15:36:45Z
2020-11-10T13:38:52Z,42.805,6.029,13.2982,4.59983,2470.273,2020-11-10T15:39:49Z
2020-11-10T13:41:56Z,42.805,6.029,13.2982,4.59982,2470.264,2020-11-10T15:42:52Z
2020-11-10T13:44:59Z,42.805,6.029,13.2981,4.59983,2470.273,2020-11-10T15:45:55Z
2020-11-10T13:48:02Z,42.805,6.029,13.2981,4.59984,2470.273,2020-11-10T15:48:58Z
2020-11-10T13:51:05Z,42.805,6.029,13.2983,4.59982,2470.31,2020-11-10T15:52:01Z
2020-11-10T13:54:08Z,42.805,6.029,13.2980,4.59984,2470.297,2020-11-10T15:55:04Z
2020-11-10T13:57:11Z,42.805,6.029,13.2982,4.59982,2470.297,2020-11-10T15:58:07Z
2020-11-10T14:00:14Z,42.805,6.029,13.2981,4.59982,2470.287,2020-11-10T16:01:10Z
2020-11-10T14:03:17Z,42.805,6.029,13.2981,4.59982,2470.287,2020-11-10T16:04:14Z
2020-11-10T14:06:21Z,42.805,6.029,13.2982,4.59982,2470.297,2020-11-10T16:07:17Z
2020-11-10T14:09:24Z,42.805,6.029,13.2982,4.59983,2470.273,2020-11-10T16:10:20Z
2020-11-10T14:12:27Z,42.805,6.029,13.2981,4.59982,2470.287,2020-11-10T16:13:23Z
2020-11-10T14:15:30Z,42.805,6.029,13.2982,4.59982,2470.287,2020-11-10T16:16:26Z
2020-11-10T14:18:33Z,42.805,6.029,13.2978,4.59983,2470.25,2020-11-10T16:19:29Z
2020-11-10T14:21:36Z,42.805,6.029,13.2980,4.59983,2470.273,2020-11-10T16:22:32Z
2020-11-10T14:24:39Z,42.805,6.029,13.2982,4.59982,2470.273,2020-11-10T16:25:35Z
2020-11-10T14:27:42Z,42.805,6.029,13.2986,4.59982,2470.273,2020-11-10T16:28:39Z
2020-11-10T14:30:46Z,42.805,6.029,13.2981,4.59985,2470.31,2020-11-10T16:31:42Z
2020-11-10T14:33:49Z,42.805,6.029,13.2985,4.59983,2470.287,2020-11-10T16:34:45Z
2020-11-10T14:36:52Z,42.805,6.029,13.2982,4.59983,2470.273,2020-11-10T16:37:48Z
2020-11-10T14:39:55Z,42.805,6.029,13.2981,4.59982,2470.31,2020-11-10T16:40:51Z
2020-11-10T14:42:58Z,42.805,6.029,13.2982,4.59982,2470.264,2020-11-10T16:43:54Z
2020-11-10T14:46:01Z,42.805,6.029,13.2982,4.59983,2470.31,2020-11-10T16:46:57Z
2020-11-10T14:49:04Z,42.805,6.029,13.2978,4.59984,2470.297,2020-11-10T16:50:00Z
2020-11-10T14:52:07Z,42.805,6.029,13.2977,4.59985,2470.334,2020-11-10T16:53:04Z
2020-11-10T14:55:11Z,42.805,6.029,13.2982,4.59982,2470.31,2020-11-10T16:56:07Z
2020-11-10T14:58:14Z,42.805,6.029,13.2983,4.59984,2470.297,2020-11-10T16:59:10Z
2020-11-10T15:01:17Z,42.805,6.029,13.2979,4.59985,2470.31,2020-11-10T17:02:13Z
2020-11-10T15:04:20Z,42.805,6.029,13.2983,4.59983,2470.273,2020-11-10T17:05:16Z
2020-11-10T15:07:23Z,42.805,6.029,13.2982,4.59983,2470.297,2020-11-10T17:08:19Z
2020-11-10T15:10:26Z,42.805,6.029,13.2980,4.59984,2470.297,2020-11-10T17:11:22Z
2020-11-10T15:13:29Z,42.805,6.029,13.2982,4.59983,2470.297,2020-11-10T17:14:25Z
2020-11-10T15:16:32Z,42.805,6.029,13.2983,4.59983,2470.297,2020-11-10T17:17:29Z
2020-11-10T15:19:36Z,42.805,6.029,13.2983,4.59983,2470.297,2020-11-10T17:20:32Z
2020-11-10T15:22:39Z,42.805,6.029,13.2982,4.59986,2470.273,2020-11-10T17:23:35Z